Location: Chuathbaluk
(61.5726°N, 159.2454°W)
Time: 17:40:36
(UTC+00:00)

NOAA 15 - Pass Details

Date: 22 January 2021
Orbit: 798 x 812 km, 98.7° (Epoch: 05 March)

Event Time Altitude Azimuth Distance (km) Brightness Sun altitude
Rises 03:36:51 0° 129° (SE) 3,310 7.5 -9.1°
Reaches altitude 10° 03:39:18 10° 122° (ESE) 2,385 6.7 -9.3°
Maximum altitude 03:44:10 40° 55° (NE) 1,186 5.0 -9.9°
Drops below altitude 10° 03:49:04 10° 347° (NNW) 2,405 7.0 -10.4°
Sets 03:51:32 0° 341° (NNW) 3,342 7.8 -10.7°
